Regional Weather Roundup
Issued by NWS

Home | Current Version | Previous Version | Graphics & Text | Print | Product List | Glossary On
Versions: 1 2 3 4 5 6 7 8 9 10 11 12 13 14 15 16 17 18 19 20 21 22 23 24 25 26 27 28 29 30 31 32 33 34 35 36 37 38 39 40 41 42 43 44 45 46 47 48 49 50
000
ASUS43 KTOP 270708
RWRKS

WEATHER ROUNDUP FOR KANSAS
NATIONAL WEATHER SERVICE GOODLAND KS
200 AM CDT FRI MAY 27 2016

NOTE:  "FAIR" INDICATES FEW OR NO CLOUDS BELOW 12,000 FEET WITH NO
SIGNIFICANT WEATHER AND/OR OBSTRUCTIONS TO VISIBILITY.

KSZ001>006-013>018-027>032-041>047-270800-
NORTHWEST KANSAS

CITY           SKY/WX    TMP DP  RH WIND       PRES   REMARKS
GOODLAND       CLOUDY    51  48  89 W7        29.78R
HAYS           CLOUDY    28 N/A N/A E17G24    29.73F WCI  16
HILL CITY      CLOUDY    59  56  89 SE9       29.75F
RUSSELL        CLOUDY    58  56  93 E15       29.72F
$$

KSZ061>065-074>080-084>089-270800-
SOUTHWEST KANSAS

CITY           SKY/WX    TMP DP  RH WIND       PRES   REMARKS
DODGE CITY     CLOUDY    58  53  84 NE13      29.70F
ELKHART          N/A     51  41  69 NW12        N/A
GARDEN CITY    CLOUDY    55  48  77 NE12      29.72F
GREAT BEND     CLOUDY    59  52  77 E13G21    29.74R
LIBERAL        CLEAR     54  39  58 N10       29.74F
PRATT          CLOUDY    57  55  91 NE10      29.73R
$$

KSZ066>073-081>083-090>101-270800-
SOUTHEAST KANSAS

CITY           SKY/WX    TMP DP  RH WIND       PRES   REMARKS
CHANUTE        CLOUDY    67  63  87 CALM      29.80F THUNDER
COFFEYVILLE    CLOUDY    71  64  78 S6        29.80F
HUTCHINSON     CLOUDY    60  57  89 NE15      29.68F
MEDICINE LODGE   N/A     63  59  87 N9        29.70R
NEWTON         CLOUDY    57  54  88 NE15G22   29.76F
PARSONS        CLOUDY    71  64  78 VRB3      29.81F THUNDER
WICHITA INTL   CLOUDY    62  59  90 E16       29.66F
WICHITA JABRA  CLOUDY    57  57 100 NE15      29.70F
WICHITA MCCONL CLOUDY    60  59  96 E20G25    29.68F
WINFIELD       CLOUDY    62  61  96 E9        29.73F
$$

KSZ007>012-019>026-033>040-048>060-102>105-270800-
NORTHEAST KANSAS

CITY           SKY/WX    TMP DP  RH WIND       PRES   REMARKS
CONCORDIA      CLOUDY    60  58  92 E17G30    29.74S
EMPORIA        LGT RAIN  58  57  97 NW5       29.86S
LAWRENCE       TSTM      63  62  97 E18G25    29.79F
MANHATTAN      RAIN      60  58  92 NE6       29.85F
MARYSVILLE     RAIN      61  61 100 S10       29.89R
OLATHE IND     CLOUDY    63  61  93 E14G20    29.81F
OLATHE EXE     CLOUDY    62  60  93 E7        29.82F
SALINA         CLOUDY    61  59  93 E17G24    29.77R
TOPEKA BILLARD RAIN      62  60  93 NW14G21   29.84F FOG
TOPEKA FORBES  RAIN      62  60  93 NW15G22   29.84F
$$




USA.gov is the U.S. government's official web portal to all federal, state and local government web resources and services.